Lid_Strength_Index
1 1 6 7 11 13 14 12 11 10 10 8 7 7 9 8 10 12 2 1 -0 -0 -1 -1 -1 -2 -1 -2 -2 -2 -2 -2 -2 -2 -2 -2 -2 -2 -2 -2 -3 -2 -2 -2 -2 -2 -2 -2 -2
4 3 7 10 13 15 14 12 11 10 8 6 6 7 8 10 5 4 3 0 -0 -0 -1 -0 -1 -2 -1 -2 -2 -2 -2 -2 -2 -2 -2 -2 -3 -2 -2 -2 -2 -2 -2 -2 -2 -2 -2 -2 -2
3 4 10 12 15 15 14 11 10 9 8 7 8 6 7 8 4 3 1 0 -0 -0 -1 -1 -1 -2 -2 -2 -2 -2 -3 -2 -2 -3 -2 -2 -2 -2 -2 -2 -2 -2 -2 -2 -2 -2 -2 -2 -2
5 8 10 14 16 13 13 10 9 9 9 7 6 9 5 3 3 2 0 -0 -0 -0 -1 -1 -1 -2 -2 -2 -2 -2 -3 -2 -2 -2 -2 -2 -2 -2 -2 -2 -2 -2 -2 -2 -2 -2 -2 -2 -2
6 10 13 14 14 13 11 9 9 10 9 8 7 10 8 3 1 1 1 0 0 0 -0 -1 -1 -2 -2 -2 -2 -2 -3 -2 -2 -3 -3 -2 -3 -2 -2 -2 -2 -2 -2 -2 -2 -2 -2 -2 -2
8 11 15 15 13 13 11 9 9 10 10 7 8 8 7 3 2 1 1 1 0 -0 -0 -0 0 -1 -2 -2 -2 -2 -2 -3 -3 -3 -3 -3 -2 -2 -2 -2 -2 -2 -2 -2 -2 -2 -2 -2 -2
9 11 14 13 13 13 12 10 10 10 9 9 6 9 8 5 2 1 1 1 0 -0 0 0 -0 -0 -0 -1 -1 -2 -2 -2 -2 -2 -3 -2 -2 -2 -2 -2 -2 -2 -2 -2 -2 -2 -2 -2 -2
9 10 12 13 13 12 11 10 10 9 10 7 5 9 9 4 1 1 1 1 1 0 0 1 0 -0 -0 0 0 -0 -1 -2 -2 -2 -2 -1 -1 -1 -2 -1 -2 -2 -2 -2 -2 -2 -2 -2 -2
7 12 13 12 12 12 11 11 10 8 8 6 6 6 4 3 1 2 2 1 2 1 1 1 1 0 0 -0 1 1 -0 -1 -1 -1 -0 0 -0 -0 -0 -1 -2 -2 -2 -2 -2 -2 -1 -1 -0
8 11 12 10 13 13 11 11 10 9 9 8 7 4 3 2 3 3 3 3 2 2 2 1 1 1 0 -1 1 1 1 1 1 0 0 0 0 0 -0 1 -1 -2 -2 -2 -2 -2 -1 0 1
9 11 9 9 11 12 12 11 10 10 11 8 8 6 4 4 4 3 3 3 2 2 1 1 1 1 0 1 1 2 2 2 1 0 0 0 0 1 1 1 1 1 1 2 1 1 1 1 1
11 8 8 8 10 12 12 12 11 10 10 8 5 4 4 4 4 4 3 3 3 2 2 1 1 0 1 1 1 1 2 2 2 1 1 2 2 2 2 3 3 2 2 2 2 2 1 1 1
10 8 9 7 9 12 12 12 12 11 10 6 4 4 5 4 4 3 3 2 2 2 2 2 1 1 1 1 2 2 1 1 1 1 1 1 2 2 2 2 2 2 2 2 2 2 1 1 1
8 8 8 9 10 10 13 13 13 12 6 6 5 5 5 4 4 3 3 3 3 2 2 2 2 2 2 1 2 2 1 1 1 1 1 1 1 2 2 2 2 1 1 1 2 2 2 2 1
7 10 10 9 9 10 11 11 14 11 6 7 6 6 5 4 3 3 3 3 3 2 2 1 2 2 2 1 1 2 2 2 2 1 1 1 0 1 1 2 2 2 1 1 2 2 2 2 2
10 10 13 11 10 10 9 13 10 11 7 7 7 7 5 5 4 3 2 3 2 2 3 2 1 2 2 2 2 2 1 1 1 1 1 1 1 1 1 1 1 1 2 2 2 2 2 3 3
11 16 14 12 11 12 12 12 8 9 10 8 7 6 6 5 4 3 3 2 3 2 2 2 2 2 2 2 1 2 2 1 1 1 1 1 1 1 1 1 1 2 2 2 2 2 3 3 3
15 14 13 13 11 14 15 14 12 12 12 11 7 7 6 6 5 3 3 3 3 3 2 1 1 2 2 2 2 1 2 2 1 1 0 0 0 1 1 1 1 2 2 2 2 3 3 3 3
11 13 13 11 10 13 13 12 13 12 13 13 12 9 7 6 4 3 3 3 4 4 3 2 1 2 1 1 2 2 2 2 2 1 0 0 1 1 1 1 1 2 2 2 2 3 3 3 2
11 13 14 11 10 11 13 13 12 12 12 13 13 12 11 7 5 4 3 4 4 4 3 3 1 1 1 1 0 2 2 2 2 2 1 0 1 1 1 1 1 1 2 2 2 3 4 3 2
12 13 13 13 12 11 14 14 14 12 11 11 12 12 11 10 7 5 4 4 3 4 4 3 3 1 1 1 1 1 3 3 3 2 1 1 0 1 1 1 1 1 1 2 2 3 3 3 3
15 11 11 12 13 16 12 19 14 12 11 10 9 9 11 12 8 6 4 4 3 3 4 3 2 2 1 1 1 1 2 3 1 1 1 1 0 0 1 1 1 1 1 2 2 2 2 3 2
13 10 12 11 13 15 15 16 14 13 12 10 9 9 8 10 11 7 5 4 3 3 3 4 4 3 2 2 1 1 2 1 1 1 1 1 1 0 0 1 1 2 2 1 2 3 2 2 2
10 12 12 12 14 19 15 15 16 14 12 11 9 8 8 9 11 10 6 4 3 2 3 4 5 4 3 2 2 2 2 2 2 2 2 2 1 1 1 1 1 2 2 2 2 2 2 1 1
10 13 19 20 20 20 16 16 14 12 11 11 10 10 9 9 9 10 9 6 4 3 3 4 5 5 3 3 2 2 3 2 3 3 2 2 2 1 1 1 1 1 2 2 2 2 2 2 2
13 13 18 22 22 20 17 19 15 11 9 10 10 10 11 11 9 9 10 7 4 3 3 3 4 4 4 3 3 2 2 2 2 2 2 2 2 1 1 1 1 1 1 2 2 3 2 2 2
13 15 12 19 24 21 19 17 14 12 12 12 12 14 13 13 12 10 9 10 6 4 3 2 2 3 3 4 3 2 2 2 3 2 2 1 1 1 1 1 1 1 1 2 2 3 3 3 3
11 10 16 15 20 22 19 19 17 14 13 12 12 13 13 14 13 12 10 11 9 6 4 3 2 2 2 2 3 4 4 3 3 2 2 2 1 1 2 2 2 1 2 2 3 3 3 4 3
13 14 13 14 16 20 22 19 15 12 13 12 12 12 13 13 13 13 12 12 10 10 7 5 5 5 5 4 2 2 2 3 4 3 2 2 1 2 2 3 2 2 2 3 3 3 4 5 4
12 12 12 17 18 18 18 18 13 13 13 13 13 13 13 12 13 13 12 12 11 11 11 10 8 6 5 5 5 4 4 5 4 3 2 3 3 4 3 3 3 3 3 4 4 4 5 5 6